N8IR-11 Weather Reports


time (UTC)temp
C
wind
direction
speed
KPH
gust
KPH
rain 1hr
cm
rain 24hr
cm
rain mn
cm
humidity
%
barometer
mb
20260504150712 18 208 6.4 9.7 0.00 0.00 0.00 59 1004.8
20260504150211 18 197 11.3 22.5 0.00 0.00 0.00 60 1004.8
20260504141212 16 205 6.4 16.1 0.00 0.00 0.00 63 1005.1
20260504140712 16 209 11.3 16.1 0.00 0.00 0.00 63 1005.1
20260504140211 16 208 12.9 20.9 0.00 0.00 0.00 63 1005.3
20260504130711 13 201 9.7 14.5 0.00 0.00 0.00 69 1005.8
20260504130211 13 208 4.8 9.7 0.00 0.00 0.00 69 1005.9
20260504120211 11 204 6.4 14.5 0.00 0.00 0.00 74 1006.1
20260504110711 10 197 3.2 9.7 0.00 0.00 0.00 76 1005.9
20260504110211 10 202 9.7 12.9 0.00 0.00 0.00 76 1005.9
20260504100211 10 197 14.5 19.3 0.00 0.00 0.00 75 1005.8
20260504081711 10 183 8.0 14.5 0.00 0.00 0.00 71 1006.8
20260504081211 10 211 6.4 9.7 0.00 0.00 0.00 71 1006.8
20260504080711 10 190 6.4 11.3 0.00 0.00 0.00 71 1006.8
20260504080211 10 206 4.8 12.9 0.00 0.00 0.00 71 1006.8
20260504070211 10 196 12.9 20.9 0.00 0.00 0.00 69 1007.5
20260504060211 11 198 8.0 19.3 0.00 0.00 0.00 67 1008.2
20260504050711 11 184 17.7 29.0 0.00 0.00 0.00 68 1008.9
20260504050211 11 183 8.0 19.3 0.00 0.00 0.00 69 1009.0
20260504045710 11 173 12.9 24.1 0.00 0.00 0.00 69 1009.0
20260504045211 11 182 6.4 14.5 0.00 0.00 0.00 69 1009.0
20260504044711 11 170 6.4 9.7 0.00 0.00 0.00 69 1009.0
20260504044211 11 206 6.4 14.5 0.00 0.00 0.00 69 1009.0
20260504043710 11 195 4.8 12.9 0.00 0.00 0.00 69 1009.1
20260504043210 10 189 9.7 17.7 0.00 0.00 0.00 70 1009.2
20260504042711 10 187 11.3 17.7 0.00 0.00 0.00 70 1009.3
20260504042231 10 185 6.4 12.9 0.00 0.00 0.00 70 1009.2
20260504041711 11 176 9.7 12.9 0.00 0.00 0.00 69 1009.3
20260504041231 10 205 6.4 17.7 0.00 0.00 0.00 69 1009.4
20260504040710 10 191 4.8 20.9 0.00 0.00 0.00 69 1009.3
20260504040211 10 187 6.4 20.9 0.00 0.00 0.00 69 1009.4
20260504035711 10 190 11.3 19.3 0.00 0.00 0.00 69 1009.4
20260504035211 11 186 4.8 14.5 0.00 0.00 0.00 69 1009.6
20260504034731 11 168 8.0 16.1 0.00 0.00 0.00 69 1009.6
20260504034211 11 177 12.9 19.3 0.00 0.00 0.00 68 1009.6
20260504033711 11 188 11.3 17.7 0.00 0.00 0.00 69 1009.7
20260504033231 11 185 6.4 22.5 0.00 0.00 0.00 69 1009.7
20260504032711 10 191 8.0 12.9 0.00 0.00 0.00 69 1009.7
20260504032211 10 194 8.0 17.7 0.00 0.00 0.00 69 1009.7
20260504031731 10 176 9.7 17.7 0.00 0.00 0.00 70 1009.8
20260504031211 10 192 9.7 14.5 0.00 0.00 0.00 70 1009.9
20260504030711 10 188 9.7 14.5 0.00 0.00 0.00 70 1009.9
20260504030231 10 209 9.7 14.5 0.00 0.00 0.00 70 1009.9
20260504025711 10 187 4.8 16.1 0.00 0.00 0.00 70 1010.0
20260504025211 10 191 6.4 14.5 0.00 0.00 0.00 70 1010.0
20260504024751 10 189 8.0 22.5 0.00 0.00 0.00 70 1010.0
20260504024211 10 176 9.7 22.5 0.00 0.00 0.00 71 1010.1
20260504023711 10 187 4.8 19.3 0.00 0.00 0.00 71 1010.2
20260504023210 10 176 12.9 20.9 0.00 0.00 0.00 71 1010.2
20260504022710 10 198 6.4 17.7 0.00 0.00 0.00 71 1010.2
20260504022211 10 189 8.0 14.5 0.00 0.00 0.00 71 1010.1
20260504021711 10 189 11.3 17.7 0.00 0.00 0.00 72 1010.2
20260504021351 10 194 4.8 11.3 0.00 0.00 0.00 72 1010.1
20260504020710 10 192 8.0 12.9 0.00 0.00 0.00 72 1010.2
20260504020211 10 190 1.6 17.7 0.00 0.00 0.00 72 1010.2
20260504015711 10 191 6.4 12.9 0.00 0.00 0.00 72 1010.2
20260504015210 11 189 6.4 11.3 0.00 0.00 0.00 72 1010.2
20260504014711 11 186 6.4 11.3 0.00 0.00 0.00 71 1010.2
20260504014210 11 184 6.4 12.9 0.00 0.00 0.00 71 1010.2
20260504013711 11 184 12.9 19.3 0.00 0.00 0.00 71 1010.2
20260504013210 11 191 4.8 12.9 0.00 0.00 0.00 71 1010.1
20260504012711 11 185 11.3 16.1 0.00 0.00 0.00 71 1010.2
20260504012211 11 183 9.7 16.1 0.00 0.00 0.00 71 1010.1
20260504011710 11 187 6.4 9.7 0.00 0.00 0.00 71 1010.2
20260504011211 11 183 4.8 16.1 0.00 0.00 0.00 71 1010.2
20260504010711 11 193 6.4 11.3 0.00 0.00 0.00 71 1010.3
20260504010210 11 188 6.4 11.3 0.00 0.00 0.00 70 1010.1
20260504005711 11 192 8.0 12.9 0.00 0.00 0.00 70 1010.2
20260504005211 11 200 9.7 12.9 0.00 0.00 0.00 70 1010.2
20260504004711 11 191 3.2 6.4 0.00 0.00 0.00 69 1010.2
20260504004210 11 169 6.4 14.5 0.00 0.00 0.00 69 1010.2
20260504003710 11 193 6.4 12.9 0.00 0.00 0.00 69 1010.2
20260504003210 11 185 6.4 16.1 0.00 0.00 0.00 68 1010.2
20260504002711 11 174 6.4 11.3 0.00 0.00 0.00 67 1010.2
20260504002231 11 168 3.2 11.3 0.00 0.00 0.00 66 1010.2
20260504001710 11 202 8.0 17.7 0.00 0.00 0.00 66 1010.2
20260504001210 11 174 3.2 9.7 0.00 0.00 0.00 65 1010.4
20260504000711 11 212 6.4 12.9 0.00 0.00 0.00 65 1010.4
20260504000211 11 221 9.7 12.9 0.00 0.00 0.00 65 1010.4
20260503235710 12 213 3.2 9.7 0.00 0.00 0.00 65 1010.3
20260503235210 12 186 8.0 16.1 0.00 0.00 0.00 64 1010.5
20260503234751 12 179 4.8 12.9 0.00 0.00 0.00 64 1010.4
20260503234211 12 204 14.5 24.1 0.00 0.00 0.00 63 1010.5
20260503233711 12 198 6.4 16.1 0.00 0.00 0.00 64 1010.6
20260503233231 12 229 11.3 20.9 0.00 0.00 0.00 63 1010.6
20260503232710 12 225 11.3 22.5 0.00 0.00 0.00 63 1010.6
20260503232210 12 216 16.1 24.1 0.00 0.00 0.00 63 1010.6
20260503231710 12 199 9.7 30.6 0.00 0.00 0.00 61 1010.7
20260503231210 12 197 14.5 30.6 0.00 0.00 0.00 62 1010.6
20260503230710 12 229 16.1 20.9 0.00 0.00 0.00 61 1010.6
20260503230210 13 211 14.5 27.4 0.00 0.00 0.00 60 1010.7
20260503225710 13 228 16.1 29.0 0.00 0.00 0.00 60 1010.5
20260503225210 13 246 17.7 24.1 0.00 0.00 0.00 60 1010.6
20260503224710 13 233 12.9 20.9 0.00 0.00 0.00 59 1010.5
20260503224210 14 220 14.5 25.7 0.00 0.00 0.00 57 1010.5
20260503223710 14 209 20.9 35.4 0.00 0.00 0.00 56 1010.5
20260503223210 14 242 12.9 20.9 0.00 0.00 0.00 55 1010.5
20260503222731 15 223 19.3 35.4 0.00 0.00 0.00 54 1010.4
20260503222210 15 228 12.9 30.6 0.00 0.00 0.00 52 1010.5
20260503221811 15 221 20.9 35.4 0.00 0.00 0.00 51 1010.4
20260503221230 15 213 20.9 45.1 0.00 0.00 0.00 48 1010.3
20260503220710 16 207 20.9 33.8 0.00 0.00 0.00 46 1010.3
20260503220210 16 203 12.9 32.2 0.00 0.00 0.00 45 1010.2
20260503215710 16 205 14.5 20.9 0.00 0.00 0.00 45 1010.0
20260503215212 16 194 20.9 46.7 0.00 0.00 0.00 44 1010.1
20260503214712 16 207 24.1 38.6 0.00 0.00 0.00 44 1010.1
20260503214212 16 231 20.9 33.8 0.00 0.00 0.00 44 1010.1
20260503213712 16 217 22.5 37.0 0.00 0.00 0.00 44 1010.2
20260503213212 16 199 19.3 32.2 0.00 0.00 0.00 44 1010.2
20260503212712 16 221 20.9 37.0 0.00 0.00 0.00 44 1010.2
20260503212212 16 198 29.0 51.5 0.00 0.00 0.00 43 1010.2
20260503211712 16 234 12.9 27.4 0.00 0.00 0.00 44 1010.2
20260503211232 16 228 17.7 29.0 0.00 0.00 0.00 44 1010.3
20260503210712 16 227 14.5 27.4 0.00 0.00 0.00 44 1010.2
20260503210212 16 195 19.3 32.2 0.00 0.00 0.00 43 1010.1
20260503205712 16 191 16.1 30.6 0.00 0.00 0.00 42 1010.2
20260503205212 16 226 8.0 30.6 0.00 0.00 0.00 41 1010.4
20260503204732 16 208 27.4 43.5 0.00 0.00 0.00 41 1010.5
20260503204212 16 209 17.7 29.0 0.00 0.00 0.00 40 1010.4
20260503203712 16 188 17.7 33.8 0.00 0.00 0.00 40 1010.5
20260503203212 17 210 16.1 45.1 0.00 0.00 0.00 39 1010.6
20260503202712 17 219 20.9 41.8 0.00 0.00 0.00 40 1010.7
20260503202212 17 231 17.7 25.7 0.00 0.00 0.00 39 1010.6
20260503201712 17 204 17.7 33.8 0.00 0.00 0.00 38 1010.7
20260503201212 17 236 19.3 30.6 0.00 0.00 0.00 40 1010.8
20260503200712 17 216 11.3 32.2 0.00 0.00 0.00 41 1010.9
20260503200212 17 193 11.3 22.5 0.00 0.00 0.00 40 1010.9
20260503195712 17 212 16.1 30.6 0.00 0.00 0.00 39 1011.0
20260503195212 17 194 11.3 27.4 0.00 0.00 0.00 40 1011.0
20260503194712 17 229 19.3 33.8 0.00 0.00 0.00 38 1011.1
20260503194212 17 195 19.3 37.0 0.00 0.00 0.00 41 1011.0
20260503193712 17 195 19.3 33.8 0.00 0.00 0.00 39 1011.1
20260503193212 16 179 14.5 30.6 0.00 0.00 0.00 39 1011.2
20260503192712 16 231 20.9 32.2 0.00 0.00 0.00 39 1011.2
20260503192212 17 207 19.3 33.8 0.00 0.00 0.00 39 1011.2
20260503191712 17 218 19.3 32.2 0.00 0.00 0.00 40 1011.3
20260503191212 17 217 19.3 30.6 0.00 0.00 0.00 41 1011.3
20260503190712 16 182 19.3 35.4 0.00 0.00 0.00 39 1011.5
20260503190212 17 202 19.3 51.5 0.00 0.00 0.00 39 1011.6
20260503185712 17 191 16.1 27.4 0.00 0.00 0.00 39 1011.5
20260503185212 16 200 16.1 30.6 0.00 0.00 0.00 40 1011.7
20260503184732 16 211 16.1 29.0 0.00 0.00 0.00 40 1011.8
20260503184212 16 228 24.1 37.0 0.00 0.00 0.00 40 1012.0
20260503183732 17 246 14.5 24.1 0.00 0.00 0.00 39 1012.0
20260503183232 17 199 17.7 35.4 0.00 0.00 0.00 40 1012.1
20260503182712 17 216 19.3 38.6 0.00 0.00 0.00 41 1012.2
20260503182212 17 186 20.9 33.8 0.00 0.00 0.00 39 1012.2
20260503181732 17 241 17.7 33.8 0.00 0.00 0.00 39 1012.1
20260503181212 17 194 12.9 24.1 0.00 0.00 0.00 41 1012.2
20260503180712 17 201 12.9 24.1 0.00 0.00 0.00 41 1012.3
20260503180257 17 237 14.5 25.7 0.00 0.00 0.00 43 1012.3
20260503175712 16 246 12.9 25.7 0.00 0.00 0.00 41 1012.5
20260503175212 16 200 14.5 32.2 0.00 0.00 0.00 39 1012.5
20260503174712 16 209 16.1 29.0 0.00 0.00 0.00 41 1012.5
20260503174212 16 203 16.1 29.0 0.00 0.00 0.00 40 1012.6
20260503173712 16 224 24.1 35.4 0.00 0.00 0.00 42 1012.8
20260503173212 16 229 12.9 24.1 0.00 0.00 0.00 43 1012.8
20260503172712 16 246 17.7 25.7 0.00 0.00 0.00 41 1012.8
20260503172212 16 238 19.3 33.8 0.00 0.00 0.00 41 1012.9
20260503171712 15 239 14.5 32.2 0.00 0.00 0.00 39 1012.9
20260503171212 16 224 22.5 46.7 0.00 0.00 0.00 40 1013.2
20260503170712 16 179 8.0 40.2 0.00 0.00 0.00 41 1013.0
20260503170212 16 210 19.3 40.2 0.00 0.00 0.00 42 1013.2
20260503160211 16 208 17.7 30.6 0.00 0.00 0.00 45 1013.9